This is the latest recevied weather packets stored in our database for station/object F5TND-3. If no packets are shown the sender has not sent any weather packets the latest 10 day(s).
| Time | Temp. | Humidity | Pressure | Rain* | Wind** | Luminosity | Snow |
|---|---|---|---|---|---|---|---|
| 1787897733 | 17.22° C | 100% | 1009.3 hPa | - | - | - | - |
| 1787895333 | 14.44° C | 100% | 1009 hPa | - | - | - | - |
| 1787894370 | 14.44° C | 100% | 1008.9 hPa | - | - | - | - |
| 1787893170 | 15.56° C | 100% | 1008.7 hPa | - | - | - | - |
| 1787889570 | 15.56° C | 100% | 1009.2 hPa | - | - | - | - |
| 1787885970 | 15.56° C | 100% | 1008.3 hPa | - | - | - | - |
| 1787884771 | 15.56° C | 100% | 1007.9 hPa | - | - | - | - |
| 1787882370 | 16.67° C | 100% | 1007.6 hPa | - | - | - | - |
| 1787881172 | 16.67° C | 100% | 1008.1 hPa | - | - | - | - |
| 1787879970 | 17.22° C | 100% | 1008 hPa | - | - | - | - |
| 1787877720 | 17.22° C | 100% | 1007.8 hPa | - | - | - | - |
| 1787877571 | 17.22° C | 100% | 1007.8 hPa | - | - | - | - |
| 1787876370 | 17.22° C | 100% | 1007.9 hPa | - | - | - | - |
| 1787875170 | 17.78° C | 100% | 1008.1 hPa | - | - | - | - |
| 1787873970 | 17.78° C | 100% | 1007.8 hPa | - | - | - | - |
| 1787872770 | 17.78° C | 100% | 1008.1 hPa | - | - | - | - |
| 1787869169 | 18.33° C | 100% | 1007.9 hPa | - | - | - | - |
| 1787867970 | 18.33° C | 100% | 1008.5 hPa | - | - | - | - |
| 1787866769 | 18.33° C | 100% | 1008.2 hPa | - | - | - | - |
| 1787865569 | 18.33° C | 100% | 1007.7 hPa | - | - | - | - |
| 1787864369 | 18.33° C | 100% | 1007.5 hPa | - | - | - | - |
| 1787861969 | 18.89° C | 100% | 1008.7 hPa | - | - | - | - |
| 1787860802 | 18.89° C | 100% | 1007.2 hPa | - | - | - | - |
| 1787860769 | 18.89° C | 100% | 1007.2 hPa | - | - | - | - |
| 1787859569 | 18.89° C | 100% | 1007 hPa | - | - | - | - |
* Rain since midnight (hover to see other rain measurements)
** Current wind speed in m/s (hover to see current wind gust speed)